Time,TemperatureF,DewpointF,PressureIn,WindDirection,WindDirectionDegrees,WindSpeedMPH,WindSpeedGustMPH,Humidity,HourlyPrecipIn,Conditions,Clouds,dailyrainin,SoftwareType,DateUTC
2013-04-15 00:00:00,57.0,44.5,30.06,NNE,22,3.5,3.5,63,0.00,CLR,,0.00,WeatherDisplay:10.37,2013-04-15 04:00:00,
2013-04-15 00:05:00,56.8,44.8,30.06,NNE,22,3.5,3.5,64,0.00,CLR,,0.00,WeatherDisplay:10.37,2013-04-15 04:05:00,
2013-04-15 00:10:00,55.9,43.9,30.06,NNE,22,0.0,0.0,64,0.00,CLR,,0.00,WeatherDisplay:10.37,2013-04-15 04:10:00,
2013-04-15 00:15:00,55.6,44.4,30.06,NNE,22,0.0,0.0,66,0.00,CLR,,0.00,WeatherDisplay:10.37,2013-04-15 04:15:00,
2013-04-15 00:20:00,55.0,43.9,30.06,NNE,22,0.0,0.0,66,0.00,CLR,,0.00,WeatherDisplay:10.37,2013-04-15 04:20:00,
2013-04-15 00:25:00,54.9,44.1,30.06,NNE,22,0.0,0.0,67,0.00,CLR,,0.00,WeatherDisplay:10.37,2013-04-15 04:25:00,
2013-04-15 00:30:00,54.7,44.7,30.06,NNE,22,0.0,0.0,69,0.00,CLR,,0.00,WeatherDisplay:10.37,2013-04-15 04:30:00,
2013-04-15 00:35:00,54.3,44.7,30.07,NNE,22,0.0,0.0,70,0.00,CLR,,0.00,WeatherDisplay:10.37,2013-04-15 04:35:00,
2013-04-15 00:40:00,54.1,44.9,30.07,NNE,22,0.0,0.0,71,0.00,CLR,,0.00,WeatherDisplay:10.37,2013-04-15 04:40:00,
2013-04-15 00:45:00,53.8,45.7,30.07,NNE,22,3.5,3.5,74,0.00,CLR,,0.00,WeatherDisplay:10.37,2013-04-15 04:45:00,
2013-04-15 00:50:00,53.2,45.9,30.07,NNE,22,4.6,4.6,76,0.00,CLR,,0.00,WeatherDisplay:10.37,2013-04-15 04:50:00,
2013-04-15 00:55:00,52.9,45.9,30.07,NNE,22,0.0,0.0,77,0.00,CLR,,0.00,WeatherDisplay:10.37,2013-04-15 04:55:00,
2013-04-15 01:00:00,52.5,45.9,30.07,NNE,22,2.3,2.3,78,0.00,CLR,,0.00,WeatherDisplay:10.37,2013-04-15 05:00:00,
2013-04-15 01:05:00,52.5,45.9,30.07,NNE,22,2.3,2.3,78,0.00,CLR,,0.00,WeatherDisplay:10.37,2013-04-15 05:05:00,
2013-04-15 01:10:00,52.0,45.7,30.07,NNE,22,2.3,2.3,79,0.00,CLR,,0.00,WeatherDisplay:10.37,2013-04-15 05:10:00,
2013-04-15 01:15:00,51.8,45.8,30.06,NNE,22,0.0,0.0,80,0.00,CLR,,0.00,WeatherDisplay:10.37,2013-04-15 05:15:00,
2013-04-15 01:20:00,51.6,46.0,30.06,NNE,22,0.0,0.0,81,0.00,CLR,,0.00,WeatherDisplay:10.37,2013-04-15 05:20:00,
2013-04-15 01:25:00,51.4,45.5,30.06,NNE,22,0.0,0.0,80,0.00,CLR,,0.00,WeatherDisplay:10.37,2013-04-15 05:25:00,
2013-04-15 01:30:00,51.4,45.8,30.06,NNE,22,0.0,0.0,81,0.00,CLR,,0.00,WeatherDisplay:10.37,2013-04-15 05:30:00,
2013-04-15 01:35:00,51.4,45.8,30.05,NNE,22,0.0,0.0,81,0.00,CLR,,0.00,WeatherDisplay:10.37,2013-04-15 05:35:00,
2013-04-15 01:40:00,51.4,45.8,30.05,NNE,22,0.0,0.0,81,0.00,CLR,,0.00,WeatherDisplay:10.37,2013-04-15 05:40:00,
2013-04-15 01:45:00,51.4,45.8,30.05,NNE,22,0.0,0.0,81,0.00,CLR,,0.00,WeatherDisplay:10.37,2013-04-15 05:45:00,
2013-04-15 01:50:00,51.4,45.8,30.05,NNE,22,0.0,0.0,81,0.00,CLR,,0.00,WeatherDisplay:10.37,2013-04-15 05:50:00,
2013-04-15 01:55:00,51.4,46.1,30.05,NNE,22,0.0,0.0,82,0.00,CLR,,0.00,WeatherDisplay:10.37,2013-04-15 05:55:00,
2013-04-15 02:00:00,51.4,46.1,30.05,NNE,22,0.0,0.0,82,0.00,CLR,,0.00,WeatherDisplay:10.37,2013-04-15 06:00:00,
2013-04-15 02:05:00,51.3,46.0,30.05,NNE,22,0.0,0.0,82,0.00,CLR,,0.00,WeatherDisplay:10.37,2013-04-15 06:05:00,
2013-04-15 02:10:00,51.1,45.8,30.05,NNE,22,0.0,0.0,82,0.00,CLR,,0.00,WeatherDisplay:10.37,2013-04-15 06:10:00,
2013-04-15 02:15:00,51.1,45.8,30.04,NNE,22,0.0,0.0,82,0.00,CLR,,0.00,WeatherDisplay:10.37,2013-04-15 06:15:00,
2013-04-15 02:20:00,50.7,45.4,30.04,NNE,22,0.0,0.0,82,0.00,CLR,,0.00,WeatherDisplay:10.37,2013-04-15 06:20:00,
2013-04-15 02:25:00,50.7,45.4,30.04,NNE,22,0.0,0.0,82,0.00,CLR,,0.00,WeatherDisplay:10.37,2013-04-15 06:25:00,
2013-04-15 02:30:00,50.5,45.2,30.04,NNE,22,0.0,0.0,82,0.00,CLR,,0.00,WeatherDisplay:10.37,2013-04-15 06:30:00,
2013-04-15 02:35:00,50.5,45.2,30.04,NNE,22,0.0,0.0,82,0.00,CLR,,0.00,WeatherDisplay:10.37,2013-04-15 06:35:00,
2013-04-15 02:41:00,50.4,45.1,30.04,NNE,22,0.0,0.0,82,0.00,CLR,,0.00,WeatherDisplay:10.37,2013-04-15 06:41:00,
2013-04-15 02:46:00,50.4,45.4,30.04,NNE,22,1.1,1.2,83,0.00,CLR,,0.00,WeatherDisplay:10.37,2013-04-15 06:46:00,
2013-04-15 02:51:00,50.2,45.2,30.04,NNE,22,0.0,0.0,83,0.00,CLR,,0.00,WeatherDisplay:10.37,2013-04-15 06:51:00,
2013-04-15 02:55:00,50.2,45.2,30.04,NNE,22,0.0,0.0,83,0.00,CLR,,0.00,WeatherDisplay:10.37,2013-04-15 06:55:00,
2013-04-15 03:01:00,50.2,45.2,30.04,NNE,22,0.0,0.0,83,0.00,CLR,,0.00,WeatherDisplay:10.37,2013-04-15 07:01:00,
2013-04-15 03:41:00,49.8,45.5,30.03,NNE,22,0.0,0.0,85,0.00,CLR,,0.00,WeatherDisplay:10.37,2013-04-15 07:41:00,
2013-04-15 03:42:00,49.8,45.5,30.03,NNE,22,0.0,0.0,85,0.00,CLR,,0.00,WeatherDisplay:10.37,2013-04-15 07:42:00,
2013-04-15 03:47:00,49.6,45.3,30.03,NNE,22,0.0,0.0,85,0.00,CLR,,0.00,WeatherDisplay:10.37,2013-04-15 07:47:00,
2013-04-15 03:48:00,49.6,45.3,30.03,NNE,22,0.0,0.0,85,0.00,CLR,,0.00,WeatherDisplay:10.37,2013-04-15 07:48:00,
2013-04-15 03:49:00,49.6,45.3,30.03,NNE,22,0.0,0.0,85,0.00,CLR,,0.00,WeatherDisplay:10.37,2013-04-15 07:49:00,
2013-04-15 03:53:00,49.6,45.3,30.03,NNE,22,0.0,0.0,85,0.00,CLR,,0.00,WeatherDisplay:10.37,2013-04-15 07:53:00,
2013-04-15 03:58:00,49.6,45.3,30.03,NNE,22,0.0,0.0,85,0.00,CLR,,0.00,WeatherDisplay:10.37,2013-04-15 07:58:00,
2013-04-15 04:03:00,49.6,45.6,30.03,NNE,22,0.0,0.0,86,0.00,CLR,,0.00,WeatherDisplay:10.37,2013-04-15 08:03:00,
2013-04-15 04:08:00,49.6,45.6,30.04,NNE,22,0.0,0.0,86,0.00,CLR,,0.00,WeatherDisplay:10.37,2013-04-15 08:08:00,
2013-04-15 04:13:00,49.6,45.6,30.04,NNE,22,0.0,0.0,86,0.00,CLR,,0.00,WeatherDisplay:10.37,2013-04-15 08:13:00,
2013-04-15 04:19:00,49.6,45.6,30.04,NNE,22,0.0,0.0,86,0.00,CLR,,0.00,WeatherDisplay:10.37,2013-04-15 08:19:00,
2013-04-15 04:24:00,49.6,45.6,30.03,NNE,22,0.0,0.0,86,0.00,CLR,,0.00,WeatherDisplay:10.37,2013-04-15 08:24:00,
2013-04-15 04:29:00,49.6,45.6,30.03,NNE,22,8.1,8.1,86,0.00,CLR,,0.00,WeatherDisplay:10.37,2013-04-15 08:29:00,
2013-04-15 04:34:00,49.6,45.9,30.03,NNE,22,0.0,0.0,87,0.00,CLR,,0.00,WeatherDisplay:10.37,2013-04-15 08:34:00,
2013-04-15 04:37:00,49.6,45.9,30.03,NNE,22,0.0,0.0,87,0.00,CLR,,0.00,WeatherDisplay:10.37,2013-04-15 08:37:00,
2013-04-15 04:40:00,49.6,45.9,30.03,NNE,22,0.0,0.0,87,0.00,CLR,,0.00,WeatherDisplay:10.37,2013-04-15 08:40:00,
2013-04-15 04:45:00,49.6,45.9,30.03,NNE,22,0.0,0.0,87,0.00,CLR,,0.00,WeatherDisplay:10.37,2013-04-15 08:45:00,
2013-04-15 04:50:00,49.6,45.9,30.03,NNE,22,0.0,0.1,87,0.00,CLR,,0.00,WeatherDisplay:10.37,2013-04-15 08:50:00,
2013-04-15 04:55:00,49.6,45.9,30.03,NNE,22,0.0,0.0,87,0.00,CLR,,0.00,WeatherDisplay:10.37,2013-04-15 08:55:00,
2013-04-15 05:00:00,49.6,45.9,30.03,NNE,22,0.0,0.0,87,0.00,CLR,,0.00,WeatherDisplay:10.37,2013-04-15 09:00:00,
2013-04-15 05:05:00,49.6,45.9,30.03,NNE,22,0.0,0.0,87,0.00,CLR,,0.00,WeatherDisplay:10.37,2013-04-15 09:05:00,
2013-04-15 05:10:00,49.6,45.9,30.03,NNE,22,5.8,5.8,87,0.00,CLR,,0.00,WeatherDisplay:10.37,2013-04-15 09:10:00,
2013-04-15 05:15:00,49.5,45.8,30.03,NNE,22,0.0,0.0,87,0.00,CLR,,0.00,WeatherDisplay:10.37,2013-04-15 09:15:00,
2013-04-15 05:20:00,49.5,45.8,30.03,NNE,22,3.5,3.5,87,0.00,CLR,,0.00,WeatherDisplay:10.37,2013-04-15 09:20:00,
2013-04-15 05:25:00,49.5,45.8,30.03,NNE,22,2.3,2.3,87,0.00,CLR,,0.00,WeatherDisplay:10.37,2013-04-15 09:25:00,
2013-04-15 05:30:00,49.3,45.6,30.03,NNE,22,0.0,0.0,87,0.00,CLR,,0.00,WeatherDisplay:10.37,2013-04-15 09:30:00,
2013-04-15 05:35:00,49.3,45.6,30.03,NNE,22,0.0,0.0,87,0.00,CLR,,0.00,WeatherDisplay:10.37,2013-04-15 09:35:00,
2013-04-15 05:40:00,49.3,45.6,30.03,NNE,22,0.0,0.0,87,0.00,CLR,,0.00,WeatherDisplay:10.37,2013-04-15 09:40:00,
2013-04-15 05:45:00,49.3,45.6,30.03,NNE,22,2.3,2.3,87,0.00,CLR,,0.00,WeatherDisplay:10.37,2013-04-15 09:45:00,
2013-04-15 05:50:00,49.3,45.6,30.03,NNE,22,0.0,0.0,87,0.00,CLR,,0.00,WeatherDisplay:10.37,2013-04-15 09:50:00,
2013-04-15 05:55:00,49.3,45.6,30.03,NNE,22,0.0,0.0,87,0.00,CLR,,0.00,WeatherDisplay:10.37,2013-04-15 09:55:00,
2013-04-15 06:00:00,49.3,45.9,30.03,NNE,22,1.1,1.1,88,0.00,CLR,,0.00,WeatherDisplay:10.37,2013-04-15 10:00:00,
2013-04-15 06:05:00,49.3,45.9,30.03,NNE,22,4.1,4.1,88,0.00,CLR,,0.00,WeatherDisplay:10.37,2013-04-15 10:05:00,
2013-04-15 06:10:00,49.3,45.9,30.03,NNE,22,2.3,2.3,88,0.00,CLR,,0.00,WeatherDisplay:10.37,2013-04-15 10:10:00,
2013-04-15 06:15:00,49.3,45.9,30.03,NNE,22,3.5,3.7,88,0.00,CLR,,0.00,WeatherDisplay:10.37,2013-04-15 10:15:00,
2013-04-15 06:20:00,49.1,45.7,30.03,NNE,22,0.0,0.0,88,0.00,CLR,,0.00,WeatherDisplay:10.37,2013-04-15 10:20:00,
2013-04-15 06:26:00,49.1,45.7,30.03,NNE,22,0.0,0.0,88,0.00,CLR,,0.00,WeatherDisplay:10.37,2013-04-15 10:26:00,
2013-04-15 06:31:00,49.1,45.7,30.03,NNE,22,2.3,2.3,88,0.00,CLR,,0.00,WeatherDisplay:10.37,2013-04-15 10:31:00,
2013-04-15 06:36:00,49.1,45.7,30.03,NNE,22,0.0,1.3,88,0.00,CLR,,0.00,WeatherDisplay:10.37,2013-04-15 10:36:00,
2013-04-15 06:41:00,48.9,45.5,30.03,NNE,22,5.8,0.0,88,0.00,CLR,,0.00,WeatherDisplay:10.37,2013-04-15 10:41:00,
2013-04-15 06:46:00,48.9,45.5,30.03,NNE,22,2.3,2.3,88,0.00,CLR,,0.00,WeatherDisplay:10.37,2013-04-15 10:46:00,
2013-04-15 06:51:00,48.9,45.5,30.04,NNE,22,3.6,0.0,88,0.00,CLR,,0.00,WeatherDisplay:10.37,2013-04-15 10:51:00,
2013-04-15 06:56:00,48.9,45.5,30.04,NNE,22,0.0,0.0,88,0.00,CLR,,0.00,WeatherDisplay:10.37,2013-04-15 10:56:00,
2013-04-15 07:01:00,49.1,45.7,30.04,NNE,22,0.0,0.0,88,0.00,CLR,,0.00,WeatherDisplay:10.37,2013-04-15 11:01:00,
2013-04-15 07:06:00,49.1,45.7,30.04,NNE,22,1.7,1.7,88,0.00,CLR,,0.00,WeatherDisplay:10.37,2013-04-15 11:06:00,
2013-04-15 07:11:00,49.1,45.7,30.04,NNE,22,1.1,1.8,88,0.00,CLR,,0.00,WeatherDisplay:10.37,2013-04-15 11:11:00,
2013-04-15 07:16:00,49.1,45.7,30.04,NNE,22,6.0,6.3,88,0.00,CLR,,0.00,WeatherDisplay:10.37,2013-04-15 11:16:00,
2013-04-15 07:21:00,49.1,46.0,30.05,NNE,22,1.0,1.0,89,0.00,CLR,,0.00,WeatherDisplay:10.37,2013-04-15 11:21:00,
2013-04-15 07:26:00,49.3,46.2,30.05,NNE,22,1.1,1.5,89,0.00,CLR,,0.00,WeatherDisplay:10.37,2013-04-15 11:26:00,
2013-04-15 07:31:00,49.3,45.9,30.05,NNE,22,2.7,2.7,88,0.00,CLR,,0.00,WeatherDisplay:10.37,2013-04-15 11:31:00,
2013-04-15 07:36:00,49.3,45.9,30.06,NNE,22,0.0,0.0,88,0.00,CLR,,0.00,WeatherDisplay:10.37,2013-04-15 11:36:00,
2013-04-15 07:41:00,49.3,45.9,30.06,NNE,22,2.3,2.3,88,0.00,CLR,,0.00,WeatherDisplay:10.37,2013-04-15 11:41:00,
2013-04-15 07:47:00,49.3,45.9,30.06,NNE,22,0.0,0.0,88,0.00,CLR,,0.00,WeatherDisplay:10.37,2013-04-15 11:47:00,
2013-04-15 07:52:00,49.3,45.9,30.06,NNE,22,2.3,2.3,88,0.00,CLR,,0.00,WeatherDisplay:10.37,2013-04-15 11:52:00,
2013-04-15 07:57:00,49.5,46.1,30.06,NNE,22,0.0,0.0,88,0.00,CLR,,0.00,WeatherDisplay:10.37,2013-04-15 11:57:00,
2013-04-15 08:02:00,49.3,45.9,30.07,NNE,22,1.1,1.1,88,0.00,CLR,,0.00,WeatherDisplay:10.37,2013-04-15 12:02:00,
2013-04-15 08:07:00,49.3,45.9,30.07,NNE,22,6.9,7.3,88,0.00,CLR,,0.00,WeatherDisplay:10.37,2013-04-15 12:07:00,
2013-04-15 08:12:00,49.3,45.9,30.07,NNE,22,0.0,0.0,88,0.00,CLR,,0.00,WeatherDisplay:10.37,2013-04-15 12:12:00,
2013-04-15 08:17:00,49.3,45.9,30.07,NNE,22,0.0,0.0,88,0.00,CLR,,0.00,WeatherDisplay:10.37,2013-04-15 12:17:00,
2013-04-15 08:22:00,49.3,45.9,30.08,NNE,22,2.3,2.8,88,0.00,CLR,,0.00,WeatherDisplay:10.37,2013-04-15 12:22:00,
2013-04-15 08:27:00,49.3,45.9,30.08,NNE,22,2.3,2.8,88,0.00,CLR,,0.00,WeatherDisplay:10.37,2013-04-15 12:27:00,
2013-04-15 08:32:00,49.3,45.9,30.08,NNE,22,0.0,0.0,88,0.00,CLR,,0.00,WeatherDisplay:10.37,2013-04-15 12:32:00,
2013-04-15 08:38:00,49.5,46.1,30.08,NNE,22,0.0,0.0,88,0.00,CLR,,0.00,WeatherDisplay:10.37,2013-04-15 12:38:00,
2013-04-15 08:43:00,49.5,46.1,30.08,NNE,22,0.0,0.0,88,0.00,CLR,,0.00,WeatherDisplay:10.37,2013-04-15 12:43:00,
2013-04-15 08:48:00,49.5,46.1,30.08,NNE,22,1.1,1.8,88,0.00,CLR,,0.00,WeatherDisplay:10.37,2013-04-15 12:48:00,
2013-04-15 08:53:00,49.6,46.2,30.08,NNE,22,0.0,0.0,88,0.00,CLR,,0.00,WeatherDisplay:10.37,2013-04-15 12:53:00,
2013-04-15 08:58:00,49.6,46.2,30.08,NNE,22,6.9,6.9,88,0.00,CLR,,0.00,WeatherDisplay:10.37,2013-04-15 12:58:00,
2013-04-15 09:04:00,49.6,46.2,30.09,NNE,22,2.3,2.8,88,0.00,CLR,,0.00,WeatherDisplay:10.37,2013-04-15 13:04:00,
2013-04-15 09:09:00,49.6,46.2,30.08,NNE,22,1.7,1.8,88,0.00,CLR,,0.00,WeatherDisplay:10.37,2013-04-15 13:09:00,
2013-04-15 09:14:00,49.6,46.2,30.09,NNE,22,0.0,0.0,88,0.00,CLR,,0.00,WeatherDisplay:10.37,2013-04-15 13:14:00,
2013-04-15 09:19:00,49.6,46.2,30.09,NNE,22,1.1,1.4,88,0.00,CLR,,0.00,WeatherDisplay:10.37,2013-04-15 13:19:00,
2013-04-15 09:24:00,49.6,46.2,30.09,NNE,22,0.0,0.0,88,0.00,CLR,,0.00,WeatherDisplay:10.37,2013-04-15 13:24:00,
2013-04-15 09:29:00,49.6,46.2,30.09,NNE,22,0.0,0.0,88,0.00,CLR,,0.00,WeatherDisplay:10.37,2013-04-15 13:29:00,
2013-04-15 09:34:00,49.6,46.2,30.09,NNE,22,0.0,0.0,88,0.00,CLR,,0.00,WeatherDisplay:10.37,2013-04-15 13:34:00,
2013-04-15 09:39:00,49.3,45.9,30.09,NNE,22,0.0,0.0,88,0.00,CLR,,0.00,WeatherDisplay:10.37,2013-04-15 13:39:00,
2013-04-15 09:44:00,49.3,45.9,30.09,NNE,22,2.3,2.8,88,0.00,CLR,,0.00,WeatherDisplay:10.37,2013-04-15 13:44:00,
2013-04-15 09:49:00,49.3,46.2,30.09,NNE,22,4.6,4.6,89,0.00,CLR,,0.00,WeatherDisplay:10.37,2013-04-15 13:49:00,
2013-04-15 09:54:00,49.3,46.2,30.09,NNE,22,0.0,0.0,89,0.00,CLR,,0.00,WeatherDisplay:10.37,2013-04-15 13:54:00,
2013-04-15 09:59:00,49.3,46.2,30.09,NNE,22,2.3,2.8,89,0.00,CLR,,0.00,WeatherDisplay:10.37,2013-04-15 13:59:00,
2013-04-15 10:05:00,49.3,46.2,30.09,NNE,22,2.3,2.3,89,0.00,CLR,,0.00,WeatherDisplay:10.37,2013-04-15 14:05:00,
2013-04-15 10:10:00,49.3,46.2,30.09,NNE,22,0.0,0.0,89,0.00,CLR,,0.00,WeatherDisplay:10.37,2013-04-15 14:10:00,
2013-04-15 10:15:00,49.6,46.5,30.09,NNE,22,1.1,1.1,89,0.00,CLR,,0.00,WeatherDisplay:10.37,2013-04-15 14:15:00,
2013-04-15 10:20:00,49.6,46.5,30.09,NNE,22,0.0,0.0,89,0.00,CLR,,0.00,WeatherDisplay:10.37,2013-04-15 14:20:00,
2013-04-15 10:25:00,49.6,46.5,30.09,NNE,22,0.0,0.0,89,0.00,CLR,,0.00,WeatherDisplay:10.37,2013-04-15 14:25:00,
2013-04-15 10:30:00,49.6,46.5,30.09,NNE,22,2.3,2.3,89,0.00,CLR,,0.00,WeatherDisplay:10.37,2013-04-15 14:30:00,
2013-04-15 10:35:00,49.8,46.7,30.09,NNE,22,1.0,1.0,89,0.00,CLR,,0.00,WeatherDisplay:10.37,2013-04-15 14:35:00,
2013-04-15 10:40:00,49.8,46.7,30.09,NNE,22,0.0,1.0,89,0.00,CLR,,0.00,WeatherDisplay:10.37,2013-04-15 14:40:00,
2013-04-15 10:45:00,49.8,46.7,30.10,NNE,22,0.0,1.0,89,0.00,CLR,,0.00,WeatherDisplay:10.37,2013-04-15 14:45:00,
2013-04-15 10:50:00,50.2,47.1,30.09,NNE,22,2.0,3.0,89,0.00,CLR,,0.00,WeatherDisplay:10.37,2013-04-15 14:50:00,
2013-04-15 10:55:00,50.2,47.1,30.10,NNE,22,0.0,0.5,89,0.00,CLR,,0.00,WeatherDisplay:10.37,2013-04-15 14:55:00,
2013-04-15 11:00:00,50.4,47.2,30.10,NNE,22,0.0,0.0,89,0.00,CLR,,0.00,WeatherDisplay:10.37,2013-04-15 15:00:00,
2013-04-15 11:05:00,50.5,47.4,30.10,NNE,22,0.0,0.0,89,0.00,CLR,,0.00,WeatherDisplay:10.37,2013-04-15 15:05:00,
2013-04-15 11:10:00,50.7,47.6,30.10,NNE,22,4.6,4.8,89,0.00,CLR,,0.00,WeatherDisplay:10.37,2013-04-15 15:10:00,
2013-04-15 11:15:00,50.9,47.5,30.11,NNE,22,4.6,4.6,88,0.00,CLR,,0.00,WeatherDisplay:10.37,2013-04-15 15:15:00,
2013-04-15 11:20:00,51.1,47.6,30.11,NNE,22,0.0,5.0,88,0.00,CLR,,0.00,WeatherDisplay:10.37,2013-04-15 15:20:00,
2013-04-15 11:25:00,51.3,47.8,30.11,NNE,22,1.0,4.0,88,0.00,CLR,,0.00,WeatherDisplay:10.37,2013-04-15 15:25:00,
2013-04-15 11:30:00,51.4,48.0,30.11,NNE,22,0.0,0.0,88,0.00,CLR,,0.00,WeatherDisplay:10.37,2013-04-15 15:30:00,
2013-04-15 11:35:00,51.4,48.0,30.11,NNE,22,0.0,0.0,88,0.00,CLR,,0.00,WeatherDisplay:10.37,2013-04-15 15:35:00,
2013-04-15 11:40:00,51.4,47.7,30.11,NNE,22,1.1,1.3,87,0.00,CLR,,0.00,WeatherDisplay:10.37,2013-04-15 15:40:00,
2013-04-15 11:45:00,51.4,47.7,30.11,NNE,22,0.0,0.0,87,0.00,CLR,,0.00,WeatherDisplay:10.37,2013-04-15 15:45:00,
2013-04-15 11:50:00,51.6,47.9,30.11,NNE,22,2.0,4.0,87,0.00,CLR,,0.00,WeatherDisplay:10.37,2013-04-15 15:50:00,
2013-04-15 11:55:00,51.6,47.9,30.11,NNE,22,1.7,1.7,87,0.00,CLR,,0.00,WeatherDisplay:10.37,2013-04-15 15:55:00,
2013-04-15 12:00:00,51.6,47.9,30.11,NNE,22,3.1,3.1,87,0.00,CLR,,0.00,WeatherDisplay:10.37,2013-04-15 16:00:00,
2013-04-15 12:05:00,51.4,47.7,30.11,NNE,22,0.0,3.0,87,0.00,CLR,,0.00,WeatherDisplay:10.37,2013-04-15 16:05:00,
2013-04-15 12:10:00,51.6,47.9,30.12,NNE,22,3.5,4.0,87,0.00,CLR,,0.00,WeatherDisplay:10.37,2013-04-15 16:10:00,
2013-04-15 12:15:00,51.6,47.9,30.12,NNE,22,0.0,3.0,87,0.00,CLR,,0.00,WeatherDisplay:10.37,2013-04-15 16:15:00,
2013-04-15 12:20:00,51.6,47.9,30.12,NNE,22,2.0,4.0,87,0.00,CLR,,0.00,WeatherDisplay:10.37,2013-04-15 16:20:00,
2013-04-15 12:25:00,51.6,47.9,30.11,NNE,22,3.0,3.0,87,0.00,CLR,,0.00,WeatherDisplay:10.37,2013-04-15 16:25:00,
2013-04-15 12:30:00,51.9,48.2,30.12,NNE,22,0.0,3.0,87,0.00,CLR,,0.00,WeatherDisplay:10.37,2013-04-15 16:30:00,
2013-04-15 12:35:00,52.2,48.4,30.11,NNE,22,0.0,1.0,87,0.00,CLR,,0.00,WeatherDisplay:10.37,2013-04-15 16:35:00,
2013-04-15 12:40:00,52.4,48.7,30.11,NNE,22,2.0,2.0,87,0.00,CLR,,0.00,WeatherDisplay:10.37,2013-04-15 16:40:00,
2013-04-15 12:45:00,52.9,49.1,30.11,NNE,22,0.0,0.0,87,0.00,CLR,,0.00,WeatherDisplay:10.37,2013-04-15 16:45:00,
2013-04-15 12:50:00,53.4,49.3,30.11,NNE,22,1.0,8.0,86,0.00,CLR,,0.00,WeatherDisplay:10.37,2013-04-15 16:50:00,
2013-04-15 12:55:00,54.1,50.0,30.11,NNE,22,0.0,7.0,86,0.00,CLR,,0.00,WeatherDisplay:10.37,2013-04-15 16:55:00,
2013-04-15 13:00:00,54.5,49.8,30.12,NNE,22,8.1,8.1,84,0.00,CLR,,0.00,WeatherDisplay:10.37,2013-04-15 17:00:00,
2013-04-15 13:05:00,54.7,49.9,30.12,NNE,22,0.0,0.0,84,0.00,CLR,,0.00,WeatherDisplay:10.37,2013-04-15 17:05:00,
2013-04-15 13:10:00,54.7,49.6,30.12,NNE,22,3.5,3.5,83,0.00,CLR,,0.00,WeatherDisplay:10.37,2013-04-15 17:10:00,
2013-04-15 13:15:00,54.7,49.6,30.12,NNE,22,2.3,2.3,83,0.00,CLR,,0.00,WeatherDisplay:10.37,2013-04-15 17:15:00,
2013-04-15 13:20:00,54.3,48.6,30.12,NNE,22,6.9,7.3,81,0.00,CLR,,0.00,WeatherDisplay:10.37,2013-04-15 17:20:00,
2013-04-15 13:21:00,54.3,48.6,30.11,NNE,22,6.9,6.9,81,0.00,CLR,,0.00,WeatherDisplay:10.37,2013-04-15 17:21:00,
2013-04-15 13:25:00,54.3,48.9,30.12,NNE,22,0.0,0.0,82,0.00,CLR,,0.00,WeatherDisplay:10.37,2013-04-15 17:25:00,
2013-04-15 13:30:00,54.7,49.0,30.11,NNE,22,5.6,5.6,81,0.00,CLR,,0.00,WeatherDisplay:10.37,2013-04-15 17:30:00,
2013-04-15 13:35:00,55.0,49.3,30.11,NNE,22,8.1,8.1,81,0.00,CLR,,0.00,WeatherDisplay:10.37,2013-04-15 17:35:00,
2013-04-15 13:40:00,55.2,49.2,30.11,NNE,22,0.0,0.0,80,0.00,CLR,,0.00,WeatherDisplay:10.37,2013-04-15 17:40:00,
2013-04-15 13:45:00,55.6,49.5,30.12,NNE,22,7.7,7.7,80,0.00,CLR,,0.00,WeatherDisplay:10.37,2013-04-15 17:45:00,
2013-04-15 13:50:00,55.9,49.9,30.11,NNE,22,3.5,3.5,80,0.00,CLR,,0.00,WeatherDisplay:10.37,2013-04-15 17:50:00,
2013-04-15 13:55:00,56.8,50.4,30.11,NNE,22,3.5,4.0,79,0.00,CLR,,0.00,WeatherDisplay:10.37,2013-04-15 17:55:00,
2013-04-15 14:00:00,58.6,51.4,30.11,NNE,22,12.0,14.0,77,0.00,CLR,,0.00,WeatherDisplay:10.37,2013-04-15 18:00:00,
2013-04-15 14:05:00,59.0,51.1,30.11,NNE,22,5.0,6.0,75,0.00,CLR,,0.00,WeatherDisplay:10.37,2013-04-15 18:05:00,
2013-04-15 14:10:00,59.4,51.1,30.11,NNE,22,5.8,6.3,74,0.00,CLR,,0.00,WeatherDisplay:10.37,2013-04-15 18:10:00,
2013-04-15 14:15:00,58.8,50.5,30.11,NNE,22,9.0,9.0,74,0.00,CLR,,0.00,WeatherDisplay:10.37,2013-04-15 18:15:00,
2013-04-15 14:20:00,58.6,50.4,30.11,NNE,22,5.0,7.0,74,0.00,CLR,,0.00,WeatherDisplay:10.37,2013-04-15 18:20:00,
2013-04-15 14:25:00,58.6,50.3,30.11,NNE,22,0.0,4.0,74,0.00,CLR,,0.00,WeatherDisplay:10.37,2013-04-15 18:25:00,
2013-04-15 14:29:00,58.8,50.2,30.11,NNE,22,1.2,1.3,73,0.00,CLR,,0.00,WeatherDisplay:10.37,2013-04-15 18:29:00,
2013-04-15 14:30:00,58.8,49.8,30.11,NNE,22,3.0,8.0,72,0.00,CLR,,0.00,WeatherDisplay:10.37,2013-04-15 18:30:00,
2013-04-15 14:35:00,59.0,50.0,30.11,NNE,22,0.0,8.0,72,0.00,CLR,,0.00,WeatherDisplay:10.37,2013-04-15 18:35:00,
2013-04-15 14:40:00,59.4,50.0,30.11,NNE,22,5.8,5.8,71,0.00,CLR,,0.00,WeatherDisplay:10.37,2013-04-15 18:40:00,
2013-04-15 14:45:00,60.1,50.3,30.11,NNE,22,8.1,8.1,70,0.00,CLR,,0.00,WeatherDisplay:10.37,2013-04-15 18:45:00,
2013-04-15 14:50:00,60.4,50.6,30.11,NNE,22,6.9,6.9,70,0.00,CLR,,0.00,WeatherDisplay:10.37,2013-04-15 18:50:00,
2013-04-15 14:55:00,60.8,51.0,30.11,NNE,22,0.0,7.0,70,0.00,CLR,,0.00,WeatherDisplay:10.37,2013-04-15 18:55:00,
2013-04-15 15:00:00,61.0,50.7,30.11,NNE,22,3.0,4.0,69,0.00,CLR,,0.00,WeatherDisplay:10.37,2013-04-15 19:00:00,
2013-04-15 15:05:00,60.6,50.4,30.11,NNE,22,3.0,3.0,69,0.00,CLR,,0.00,WeatherDisplay:10.37,2013-04-15 19:05:00,
2013-04-15 15:10:00,60.6,50.8,30.11,NNE,22,6.0,8.0,70,0.00,CLR,,0.00,WeatherDisplay:10.37,2013-04-15 19:10:00,
2013-04-15 15:15:00,60.5,50.7,30.11,NNE,22,10.0,10.0,70,0.00,CLR,,0.00,WeatherDisplay:10.37,2013-04-15 19:15:00,
2013-04-15 15:20:00,59.9,50.1,30.11,NNE,22,5.0,10.0,70,0.00,CLR,,0.00,WeatherDisplay:10.37,2013-04-15 19:20:00,
2013-04-15 15:25:00,59.2,49.8,30.12,NNE,22,0.0,6.0,71,0.00,CLR,,0.00,WeatherDisplay:10.37,2013-04-15 19:25:00,
2013-04-15 15:30:00,58.8,49.8,30.11,NNE,22,3.0,6.0,72,0.00,CLR,,0.00,WeatherDisplay:10.37,2013-04-15 19:30:00,
2013-04-15 15:35:00,58.8,49.8,30.11,NNE,22,2.3,2.7,72,0.00,CLR,,0.00,WeatherDisplay:10.37,2013-04-15 19:35:00,
2013-04-15 15:40:00,58.8,49.8,30.11,NNE,22,8.1,8.1,72,0.00,CLR,,0.00,WeatherDisplay:10.37,2013-04-15 19:40:00,
2013-04-15 15:45:00,59.7,51.0,30.11,NNE,22,10.4,10.5,73,0.00,CLR,,0.00,WeatherDisplay:10.37,2013-04-15 19:45:00,
2013-04-15 15:50:00,61.2,51.7,30.10,NNE,22,5.8,6.5,71,0.00,CLR,,0.00,WeatherDisplay:10.37,2013-04-15 19:50:00,
2013-04-15 15:57:00,62.8,52.5,30.10,NNE,22,8.1,8.1,69,0.00,CLR,,0.00,WeatherDisplay:10.37,2013-04-15 19:57:00,
2013-04-15 16:00:00,63.1,52.0,30.11,NNE,22,8.0,8.0,67,0.00,CLR,,0.00,WeatherDisplay:10.37,2013-04-15 20:00:00,
2013-04-15 16:01:00,63.1,52.0,30.11,NNE,22,8.1,8.1,67,0.00,CLR,,0.00,WeatherDisplay:10.37,2013-04-15 20:01:00,
2013-04-15 16:02:00,63.1,52.0,30.11,NNE,22,8.1,8.1,67,0.00,CLR,,0.00,WeatherDisplay:10.37,2013-04-15 20:02:00,
2013-04-15 16:03:00,63.1,52.0,30.11,NNE,22,8.1,8.1,67,0.00,CLR,,0.00,WeatherDisplay:10.37,2013-04-15 20:03:00,
2013-04-15 16:08:00,63.5,51.9,30.11,NNE,22,3.5,3.5,66,0.00,CLR,,0.00,WeatherDisplay:10.37,2013-04-15 20:08:00,
2013-04-15 16:13:00,63.7,52.1,30.10,NNE,22,0.0,0.0,66,0.00,CLR,,0.00,WeatherDisplay:10.37,2013-04-15 20:13:00,
2013-04-15 16:18:00,63.7,51.7,30.11,NNE,22,4.6,4.6,65,0.00,CLR,,0.00,WeatherDisplay:10.37,2013-04-15 20:18:00,
2013-04-15 16:23:00,63.7,52.1,30.11,NNE,22,10.4,10.4,66,0.00,CLR,,0.00,WeatherDisplay:10.37,2013-04-15 20:23:00,
2013-04-15 16:28:00,63.1,50.8,30.11,NNE,22,4.6,5.0,64,0.00,CLR,,0.00,WeatherDisplay:10.37,2013-04-15 20:28:00,
2013-04-15 16:33:00,62.1,50.6,30.11,NNE,22,5.1,5.1,66,0.00,CLR,,0.00,WeatherDisplay:10.37,2013-04-15 20:33:00,
2013-04-15 16:38:00,61.3,50.3,30.11,NNE,22,5.8,5.8,67,0.00,CLR,,0.00,WeatherDisplay:10.37,2013-04-15 20:38:00,
2013-04-15 16:43:00,60.6,50.0,30.11,NNE,22,4.6,4.6,68,0.00,CLR,,0.00,WeatherDisplay:10.37,2013-04-15 20:43:00,
2013-04-15 16:48:00,59.9,50.1,30.11,NNE,22,4.6,4.6,70,0.00,CLR,,0.00,WeatherDisplay:10.37,2013-04-15 20:48:00,
2013-04-15 16:53:00,59.7,49.9,30.11,NNE,22,2.3,2.3,70,0.00,CLR,,0.00,WeatherDisplay:10.37,2013-04-15 20:53:00,
2013-04-15 16:58:00,59.5,49.4,30.11,NNE,22,0.0,0.0,69,0.00,CLR,,0.00,WeatherDisplay:10.37,2013-04-15 20:58:00,
2013-04-15 17:03:00,58.8,49.4,30.11,NNE,22,4.1,4.1,71,0.00,CLR,,0.00,WeatherDisplay:10.37,2013-04-15 21:03:00,
2013-04-15 17:08:00,58.8,49.8,30.11,NNE,22,1.1,2.5,72,0.00,CLR,,0.00,WeatherDisplay:10.37,2013-04-15 21:08:00,
2013-04-15 17:13:00,58.6,49.6,30.11,NNE,22,0.0,0.0,72,0.00,CLR,,0.00,WeatherDisplay:10.37,2013-04-15 21:13:00,
2013-04-15 17:18:00,58.8,50.2,30.11,NNE,22,0.0,0.0,73,0.00,CLR,,0.00,WeatherDisplay:10.37,2013-04-15 21:18:00,
2013-04-15 17:23:00,58.8,49.8,30.11,NNE,22,1.1,1.1,72,0.00,CLR,,0.00,WeatherDisplay:10.37,2013-04-15 21:23:00,
2013-04-15 17:28:00,58.8,49.8,30.11,NNE,22,4.6,5.0,72,0.00,CLR,,0.00,WeatherDisplay:10.37,2013-04-15 21:28:00,
2013-04-15 17:33:00,58.8,49.8,30.12,NNE,22,1.1,1.1,72,0.00,CLR,,0.00,WeatherDisplay:10.37,2013-04-15 21:33:00,
2013-04-15 17:38:00,58.6,50.0,30.12,NNE,22,1.1,1.1,73,0.00,CLR,,0.00,WeatherDisplay:10.37,2013-04-15 21:38:00,
2013-04-15 17:43:00,58.6,50.0,30.12,NNE,22,0.0,0.0,73,0.00,CLR,,0.00,WeatherDisplay:10.37,2013-04-15 21:43:00,
2013-04-15 17:48:00,58.8,50.5,30.12,NNE,22,0.0,0.2,74,0.00,CLR,,0.00,WeatherDisplay:10.37,2013-04-15 21:48:00,
2013-04-15 17:53:00,60.1,51.4,30.12,NNE,22,2.4,2.5,73,0.00,CLR,,0.00,WeatherDisplay:10.37,2013-04-15 21:53:00,
2013-04-15 17:58:00,60.4,51.0,30.12,NNE,22,3.5,3.5,71,0.00,CLR,,0.00,WeatherDisplay:10.37,2013-04-15 21:58:00,
2013-04-15 18:03:00,60.1,50.3,30.12,NNE,22,0.0,0.0,70,0.00,CLR,,0.00,WeatherDisplay:10.37,2013-04-15 22:03:00,
2013-04-15 18:08:00,58.8,49.4,30.12,NNE,22,0.0,0.0,71,0.00,CLR,,0.00,WeatherDisplay:10.37,2013-04-15 22:08:00,
2013-04-15 18:13:00,58.6,49.6,30.12,NNE,22,0.0,0.0,72,0.00,CLR,,0.00,WeatherDisplay:10.37,2013-04-15 22:13:00,
2013-04-15 18:18:00,57.9,49.3,30.12,NNE,22,0.0,0.0,73,0.00,CLR,,0.00,WeatherDisplay:10.37,2013-04-15 22:18:00,
2013-04-15 18:23:00,57.9,49.7,30.12,NNE,22,5.8,5.8,74,0.00,CLR,,0.00,WeatherDisplay:10.37,2013-04-15 22:23:00,
2013-04-15 18:28:00,57.9,49.7,30.12,NNE,22,1.4,1.5,74,0.00,CLR,,0.00,WeatherDisplay:10.37,2013-04-15 22:28:00,
2013-04-15 18:33:00,58.1,49.9,30.12,NNE,22,0.0,0.3,74,0.00,CLR,,0.00,WeatherDisplay:10.37,2013-04-15 22:33:00,
2013-04-15 18:38:00,57.9,49.7,30.12,NNE,22,10.4,10.4,74,0.00,CLR,,0.00,WeatherDisplay:10.37,2013-04-15 22:38:00,
2013-04-15 18:43:00,57.7,49.5,30.12,NNE,22,3.9,4.0,74,0.00,CLR,,0.00,WeatherDisplay:10.37,2013-04-15 22:43:00,
2013-04-15 18:48:00,57.4,49.2,30.12,NNE,22,0.0,0.0,74,0.00,CLR,,0.00,WeatherDisplay:10.37,2013-04-15 22:48:00,
2013-04-15 18:53:00,57.0,49.2,30.12,NNE,22,3.5,3.8,75,0.00,CLR,,0.00,WeatherDisplay:10.37,2013-04-15 22:53:00,
2013-04-15 18:58:00,56.8,49.4,30.12,NNE,22,0.0,0.0,76,0.00,CLR,,0.00,WeatherDisplay:10.37,2013-04-15 22:58:00,
2013-04-15 19:03:00,56.5,49.0,30.12,NNE,22,4.6,4.6,76,0.00,CLR,,0.00,WeatherDisplay:10.37,2013-04-15 23:03:00,
2013-04-15 19:08:00,56.5,49.4,30.12,NNE,22,2.3,2.3,77,0.00,CLR,,0.00,WeatherDisplay:10.37,2013-04-15 23:08:00,
2013-04-15 19:13:00,56.5,49.4,30.12,NNE,22,3.5,6.3,77,0.00,CLR,,0.00,WeatherDisplay:10.37,2013-04-15 23:13:00,
2013-04-15 19:18:00,56.5,49.4,30.12,NNE,22,4.6,4.6,77,0.00,CLR,,0.00,WeatherDisplay:10.37,2013-04-15 23:18:00,
2013-04-15 19:23:00,56.1,49.4,30.11,NNE,22,2.3,2.8,78,0.00,CLR,,0.00,WeatherDisplay:10.37,2013-04-15 23:23:00,
2013-04-15 19:28:00,55.9,49.2,30.12,NNE,22,4.6,5.0,78,0.00,CLR,,0.00,WeatherDisplay:10.37,2013-04-15 23:28:00,
2013-04-15 19:33:00,55.6,48.8,30.12,NNE,22,8.1,8.1,78,0.00,CLR,,0.00,WeatherDisplay:10.37,2013-04-15 23:33:00,
2013-04-15 19:38:00,55.2,48.8,30.12,NNE,22,4.6,4.6,79,0.00,CLR,,0.00,WeatherDisplay:10.37,2013-04-15 23:38:00,
2013-04-15 19:43:00,55.2,48.8,30.12,NNE,22,3.5,3.5,79,0.00,CLR,,0.00,WeatherDisplay:10.37,2013-04-15 23:43:00,
2013-04-15 19:48:00,55.0,48.6,30.12,NNE,22,0.0,0.0,79,0.00,CLR,,0.00,WeatherDisplay:10.37,2013-04-15 23:48:00,
2013-04-15 19:53:00,54.9,48.8,30.11,NNE,22,3.5,3.5,80,0.00,CLR,,0.00,WeatherDisplay:10.37,2013-04-15 23:53:00,
2013-04-15 19:58:00,54.5,48.8,30.11,NNE,22,1.1,1.7,81,0.00,CLR,,0.00,WeatherDisplay:10.37,2013-04-15 23:58:00,
2013-04-15 20:03:00,54.3,48.6,30.12,NNE,22,4.6,4.6,81,0.00,CLR,,0.00,WeatherDisplay:10.37,2013-04-16 00:03:00,
2013-04-15 20:08:00,54.1,48.4,30.12,NNE,22,0.0,0.0,81,0.00,CLR,,0.00,WeatherDisplay:10.37,2013-04-16 00:08:00,
2013-04-15 20:13:00,54.1,48.8,30.12,NNE,22,2.3,2.3,82,0.00,CLR,,0.00,WeatherDisplay:10.37,2013-04-16 00:13:00,
2013-04-15 20:18:00,53.8,48.4,30.11,NNE,22,4.6,4.6,82,0.00,CLR,,0.00,WeatherDisplay:10.37,2013-04-16 00:18:00,
2013-04-15 20:23:00,53.8,48.7,30.11,NNE,22,6.9,0.0,83,0.00,CLR,,0.00,WeatherDisplay:10.37,2013-04-16 00:23:00,
2013-04-15 20:28:00,53.8,48.7,30.11,NNE,22,2.3,2.3,83,0.00,CLR,,0.00,WeatherDisplay:10.37,2013-04-16 00:28:00,
2013-04-15 20:33:00,53.8,48.7,30.11,NNE,22,8.1,0.0,83,0.00,CLR,,0.00,WeatherDisplay:10.37,2013-04-16 00:33:00,
2013-04-15 20:38:00,53.8,48.7,30.12,NNE,22,2.3,2.3,83,0.00,CLR,,0.00,WeatherDisplay:10.37,2013-04-16 00:38:00,
2013-04-15 20:43:00,54.0,48.9,30.13,NNE,22,0.0,0.0,83,0.00,CLR,,0.00,WeatherDisplay:10.37,2013-04-16 00:43:00,
2013-04-15 20:48:00,54.1,49.4,30.12,NNE,22,0.0,0.0,84,0.00,CLR,,0.00,WeatherDisplay:10.37,2013-04-16 00:48:00,
2013-04-15 20:53:00,54.1,49.4,30.12,NNE,22,3.5,0.0,84,0.00,CLR,,0.00,WeatherDisplay:10.37,2013-04-16 00:53:00,
2013-04-15 20:58:00,54.3,49.6,30.13,NNE,22,1.1,1.3,84,0.00,CLR,,0.00,WeatherDisplay:10.37,2013-04-16 00:58:00,
2013-04-15 21:04:00,54.3,49.6,30.13,NNE,22,1.1,1.8,84,0.00,CLR,,0.00,WeatherDisplay:10.37,2013-04-16 01:04:00,
2013-04-15 21:09:00,54.5,49.8,30.14,NNE,22,0.0,0.0,84,0.00,CLR,,0.00,WeatherDisplay:10.37,2013-04-16 01:09:00,
2013-04-15 21:14:00,54.7,49.6,30.14,NNE,22,0.0,0.0,83,0.00,CLR,,0.00,WeatherDisplay:10.37,2013-04-16 01:14:00,
2013-04-15 21:19:00,54.7,49.6,30.14,NNE,22,2.3,2.3,83,0.00,CLR,,0.00,WeatherDisplay:10.37,2013-04-16 01:19:00,
2013-04-15 21:24:00,54.7,49.6,30.14,NNE,22,0.0,0.0,83,0.00,CLR,,0.00,WeatherDisplay:10.37,2013-04-16 01:24:00,
2013-04-15 21:29:00,54.7,49.6,30.14,NNE,22,0.0,0.1,83,0.00,CLR,,0.00,WeatherDisplay:10.37,2013-04-16 01:29:00,
2013-04-15 21:34:00,54.7,49.6,30.14,NNE,22,3.4,3.4,83,0.00,CLR,,0.00,WeatherDisplay:10.37,2013-04-16 01:34:00,
2013-04-15 21:39:00,54.7,49.6,30.14,NNE,22,8.4,8.8,83,0.00,CLR,,0.00,WeatherDisplay:10.37,2013-04-16 01:39:00,
2013-04-15 21:44:00,54.7,49.6,30.14,NNE,22,4.8,4.8,83,0.00,CLR,,0.00,WeatherDisplay:10.37,2013-04-16 01:44:00,
2013-04-15 21:49:00,54.7,49.6,30.14,NNE,22,4.6,5.0,83,0.00,CLR,,0.00,WeatherDisplay:10.37,2013-04-16 01:49:00,
2013-04-15 21:54:00,54.5,49.4,30.14,NNE,22,4.6,4.6,83,0.00,CLR,,0.00,WeatherDisplay:10.37,2013-04-16 01:54:00,
2013-04-15 21:59:00,54.3,49.6,30.15,NNE,22,4.6,5.3,84,0.00,CLR,,0.00,WeatherDisplay:10.37,2013-04-16 01:59:00,
2013-04-15 22:04:00,54.3,49.6,30.15,NNE,22,4.6,4.6,84,0.00,CLR,,0.00,WeatherDisplay:10.37,2013-04-16 02:04:00,
2013-04-15 22:09:00,54.3,49.6,30.15,NNE,22,1.1,1.3,84,0.00,CLR,,0.00,WeatherDisplay:10.37,2013-04-16 02:09:00,
2013-04-15 22:14:00,54.3,49.6,30.15,NNE,22,0.0,0.0,84,0.00,CLR,,0.00,WeatherDisplay:10.37,2013-04-16 02:14:00,
2013-04-15 22:19:00,54.1,49.4,30.15,NNE,22,1.1,1.2,84,0.00,CLR,,0.00,WeatherDisplay:10.37,2013-04-16 02:19:00,
2013-04-15 22:24:00,54.1,49.4,30.15,NNE,22,4.6,0.0,84,0.00,CLR,,0.00,WeatherDisplay:10.37,2013-04-16 02:24:00,
2013-04-15 22:29:00,54.1,49.4,30.15,NNE,22,0.0,0.0,84,0.00,CLR,,0.00,WeatherDisplay:10.37,2013-04-16 02:29:00,
2013-04-15 22:34:00,54.0,49.2,30.15,NNE,22,6.9,6.9,84,0.00,CLR,,0.00,WeatherDisplay:10.37,2013-04-16 02:34:00,
2013-04-15 22:39:00,53.8,49.4,30.15,NNE,22,8.2,8.5,85,0.00,CLR,,0.00,WeatherDisplay:10.37,2013-04-16 02:39:00,
2013-04-15 22:44:00,53.8,49.4,30.15,NNE,22,0.0,0.0,85,0.00,CLR,,0.00,WeatherDisplay:10.37,2013-04-16 02:44:00,
2013-04-15 22:49:00,53.8,49.4,30.15,NNE,22,5.8,5.8,85,0.00,CLR,,0.00,WeatherDisplay:10.37,2013-04-16 02:49:00,
2013-04-15 22:54:00,53.8,49.4,30.15,NNE,22,4.6,4.8,85,0.00,CLR,,0.00,WeatherDisplay:10.37,2013-04-16 02:54:00,
2013-04-15 22:59:00,53.8,49.4,30.16,NNE,22,2.3,0.0,85,0.00,CLR,,0.00,WeatherDisplay:10.37,2013-04-16 02:59:00,
2013-04-15 23:04:00,53.8,49.4,30.15,NNE,22,1.1,0.0,85,0.00,CLR,,0.00,WeatherDisplay:10.37,2013-04-16 03:04:00,
2013-04-15 23:09:00,53.8,49.4,30.15,NNE,22,0.0,0.0,85,0.00,CLR,,0.00,WeatherDisplay:10.37,2013-04-16 03:09:00,
2013-04-15 23:14:00,53.8,49.4,30.15,NNE,22,0.0,0.0,85,0.00,CLR,,0.00,WeatherDisplay:10.37,2013-04-16 03:14:00,
2013-04-15 23:19:00,53.8,49.4,30.15,NNE,22,0.0,0.0,85,0.00,CLR,,0.00,WeatherDisplay:10.37,2013-04-16 03:19:00,
2013-04-15 23:24:00,53.6,49.2,30.15,NNE,22,3.5,3.5,85,0.00,CLR,,0.00,WeatherDisplay:10.37,2013-04-16 03:24:00,
2013-04-15 23:29:00,53.8,49.4,30.15,NNE,22,0.0,0.0,85,0.00,CLR,,0.00,WeatherDisplay:10.37,2013-04-16 03:29:00,
2013-04-15 23:34:00,53.6,49.2,30.15,NNE,22,0.0,0.2,85,0.00,CLR,,0.00,WeatherDisplay:10.37,2013-04-16 03:34:00,
2013-04-15 23:39:00,53.6,49.5,30.15,NNE,22,6.9,6.9,86,0.00,CLR,,0.00,WeatherDisplay:10.37,2013-04-16 03:39:00,
2013-04-15 23:44:00,53.6,49.5,30.15,NNE,22,3.6,3.6,86,0.00,CLR,,0.00,WeatherDisplay:10.37,2013-04-16 03:44:00,
2013-04-15 23:49:00,53.4,49.3,30.15,NNE,22,1.4,1.4,86,0.00,CLR,,0.00,WeatherDisplay:10.37,2013-04-16 03:49:00,
2013-04-15 23:54:00,53.4,49.0,30.15,NNE,22,0.5,0.5,85,0.00,CLR,,0.00,WeatherDisplay:10.37,2013-04-16 03:54:00,
2013-04-15 23:59:00,53.4,49.3,30.15,NNE,22,3.9,3.9,86,0.00,CLR,,0.00,WeatherDisplay:10.37,2013-04-16 03:59:00,